DW1736 Weather Reports


time (UTC)temp
C
wind
direction
speed
KPH
gust
KPH
rain 1hr
cm
rain 24hr
cm
rain mn
cm
humidity
%
barometer
mb
20260505041540 18 0.0 11.3 0.00 0.00 0.00 66 1012.1
20260505040600 18 0.0 4.8 0.00 0.00 0.00 64 1012.0
20260505035526 18 0.0 1.6 0.00 0.00 0.00 63 1012.0
20260505034539 17 0.0 1.6 0.00 0.00 0.00 62 1012.0
20260505033559 17 0.0 0.0 0.00 0.00 0.00 60 1012.0
20260505032538 17 0.0 1.6 0.00 0.00 0.00 58 1012.0
20260505031526 17 0.0 0.0 0.00 0.00 0.00 58 1012.0
20260505030526 17 0.0 0.0 0.00 0.00 0.00 58 1011.9
20260505025539 17 0.0 0.0 0.00 0.00 0.00 59 1011.9
20260505024526 17 0.0 0.0 0.00 0.00 0.00 59 1011.8
20260505023538 17 0.0 0.0 0.00 0.00 0.00 58 1011.7
20260505022539 17 0.0 0.0 0.00 0.00 0.00 57 1011.6
20260505021538 18 0.0 0.0 0.00 0.00 0.00 56 1011.5
20260505020526 18 0.0 0.0 0.00 0.00 0.00 55 1011.5
20260505015525 18 0.0 0.0 0.00 0.00 0.00 54 1011.4
20260505014538 18 0.0 0.0 0.00 0.00 0.00 53 1011.2
20260505013537 18 0.0 0.0 0.00 0.00 0.00 54 1011.0
20260505012538 18 0.0 0.0 0.00 0.00 0.00 53 1011.0
20260505011538 18 0.0 0.0 0.00 0.00 0.00 53 1011.1
20260505010525 18 0.0 0.0 0.00 0.00 0.00 51 1011.1
20260505005538 18 0.0 0.0 0.00 0.00 0.00 48 1011.0
20260505004525 18 0.0 0.0 0.00 0.00 0.00 46 1011.0
20260505003538 19 0.0 0.0 0.00 0.00 0.00 45 1010.9
20260505002538 20 0.0 0.0 0.00 0.00 0.00 43 1010.8
20260505001538 20 0.0 0.0 0.00 0.00 0.00 42 1010.6
20260505000538 21 0.0 0.0 0.00 0.00 0.00 41 1010.6
20260504235525 21 0.0 0.0 0.00 0.00 0.00 38 1010.6
20260504234525 22 0.0 0.0 0.00 0.00 0.00 35 1010.5
20260504233525 22 0.0 3.2 0.00 0.00 0.00 33 1010.5
20260504232538 23 0.0 0.0 0.00 0.00 0.00 33 1010.4
20260504231537 23 0.0 0.0 0.00 0.00 0.00 32 1010.4
20260504230537 23 0.0 0.0 0.00 0.00 0.00 30 1010.3
20260504225525 25 0.0 1.6 0.00 0.00 0.00 29 1010.1
20260504224545 25 0.0 4.8 0.00 0.00 0.00 29 1010.2
20260504223537 26 0.0 3.2 0.00 0.00 0.00 28 1010.3
20260504222558 26 0.0 0.0 0.00 0.00 0.00 29 1010.3
20260504221538 26 0.0 1.6 0.00 0.00 0.00 31 1010.4
20260504220537 26 0.0 3.2 0.00 0.00 0.00 30 1010.4
20260504215525 26 0.0 3.2 0.00 0.00 0.00 30 1010.4
20260504214537 26 0.0 3.2 0.00 0.00 0.00 29 1010.4
20260504213544 26 270 1.6 3.2 0.00 0.00 0.00 30 1010.5
20260504212537 26 0.0 3.2 0.00 0.00 0.00 29 1010.6
20260504211559 26 270 1.6 14.5 0.00 0.00 0.00 28 1010.6
20260504210537 26 248 1.6 6.4 0.00 0.00 0.00 27 1010.7
20260504205539 25 248 1.6 11.3 0.00 0.00 0.00 28 1010.7
20260504204539 25 248 1.6 6.4 0.00 0.00 0.00 27 1010.8
20260504203539 25 270 1.6 4.8 0.00 0.00 0.00 28 1010.9
20260504202601 25 270 1.6 6.4 0.00 0.00 0.00 27 1010.8
20260504201527 25 270 1.6 4.8 0.00 0.00 0.00 28 1011.0
20260504200539 25 0.0 4.8 0.00 0.00 0.00 27 1011.0
20260504195539 25 248 1.6 6.4 0.00 0.00 0.00 27 1011.3
20260504194539 25 248 1.6 6.4 0.00 0.00 0.00 26 1011.3
20260504193539 25 270 1.6 17.7 0.00 0.00 0.00 28 1011.5
20260504192539 25 0.0 3.2 0.00 0.00 0.00 27 1011.6
20260504191559 24 0.0 4.8 0.00 0.00 0.00 27 1011.6
20260504190526 24 0.0 3.2 0.00 0.00 0.00 29 1011.8
20260504185526 25 0.0 3.2 0.00 0.00 0.00 27 1011.8
20260504184539 26 270 1.6 9.7 0.00 0.00 0.00 27 1012.0
20260504183559 26 248 1.6 9.7 0.00 0.00 0.00 27 1012.1
20260504182619 25 0.0 3.2 0.00 0.00 0.00 27 1012.2
20260504181539 25 248 1.6 14.5 0.00 0.00 0.00 26 1012.3
20260504180539 25 270 1.6 8.0 0.00 0.00 0.00 27 1012.5
20260504175526 25 225 1.6 9.7 0.00 0.00 0.00 26 1012.5
20260504174526 24 225 1.6 6.4 0.00 0.00 0.00 25 1012.6
20260504173639 23 248 1.6 14.5 0.00 0.00 0.00 28 1012.7
20260504172539 24 248 3.2 25.7 0.00 0.00 0.00 26 1012.8
20260504171539 23 270 1.6 11.3 0.00 0.00 0.00 27 1012.9
20260504170526 23 270 3.2 9.7 0.00 0.00 0.00 31 1013.0
20260504150526 20 248 1.6 9.7 0.00 0.00 0.00 43 1014.1
20260504140538 17 0.0 3.2 0.00 0.00 0.00 52 1014.5
20260504130538 15 270 1.6 9.7 0.00 0.00 0.00 60 1014.9
20260504110538 11 0.0 0.0 0.00 0.00 0.00 77 1015.3
20260504100537 10 0.0 0.0 0.00 0.00 0.00 79 1015.3
20260504081524 10 0.0 0.0 0.00 0.00 0.00 84 1015.6
20260504080537 10 0.0 1.6 0.00 0.00 0.00 84 1015.6
20260504050527 7 0.0 0.0 0.00 0.00 0.00 81 1016.0
20260504045540 6 0.0 0.0 0.00 0.00 0.00 84 1015.9
20260504044539 6 0.0 0.0 0.00 0.00 0.00 86 1015.9
20260504043540 5 0.0 0.0 0.00 0.00 0.00 86 1015.9
20260504042540 6 0.0 0.0 0.00 0.00 0.00 85 1015.9